When you browse on this site, cookies collect data to enhance your experience and personalize the content and advertising you see.
Visit our Privacy Policy to learn more. By continuing to use the site, you agree to this use of cookies and data.
  • In Latvia
  • List of Countries
  • For 7 days
  • Water Temperature
  • Weather Map
  • Weather Widgets
  • user-avatar
    Login

    Hourly Weather Rudolowice

    Today, 18 August, Sunday

    Time Temperature Precipitation Wind Pressure Humidity
    00:00 +16°C° 0 mm 2 mps 741 mmHg 75%
    01:00 +16°C° 0 mm 1 mps 741 mmHg 77%
    02:00 +16°C° 0 mm 1 mps 741 mmHg 78%
    03:00 +15°C° 0 mm 1 mps 741 mmHg 80%
    04:00 +15°C° 0 mm 2 mps 741 mmHg 81%
    05:00 +15°C° 0 mm 2 mps 741 mmHg 82%
    06:00 +16°C° 0 mm 2 mps 741 mmHg 79%
    07:00 +18°C° 0 mm 2 mps 741 mmHg 77%
    08:00 +19°C° 0 mm 2 mps 741 mmHg 74%
    09:00 +21°C° 0 mm 2 mps 741 mmHg 69%
    10:00 +22°C° 0 mm 3 mps 741 mmHg 64%
    11:00 +25°C° 0 mm 3 mps 741 mmHg 58%
    12:00 +26°C° 0 mm 3 mps 741 mmHg 56%
    13:00 +26°C° 0 mm 4 mps 741 mmHg 54%
    14:00 +27°C° 0 mm 4 mps 741 mmHg 52%
    15:00 +27°C° 0 mm 4 mps 741 mmHg 56%
    16:00 +27°C° 0 mm 4 mps 740 mmHg 59%
    17:00 +26°C° 0 mm 3 mps 740 mmHg 63%
    18:00 +25°C° 0 mm 3 mps 741 mmHg 67%
    19:00 +22°C° 0 mm 3 mps 741 mmHg 70%
    20:00 +21°C° 0 mm 3 mps 741 mmHg 74%
    21:00 +21°C° 0 mm 3 mps 741 mmHg 72%
    22:00 +20°C° 0 mm 3 mps 741 mmHg 71%
    23:00 +20°C° 0 mm 3 mps 741 mmHg 70%

    Tomorrow, 19 August, Monday

    Time Temperature Precipitation Wind Pressure Humidity
    00:00 +19°C° 0 mm 3 mps 741 mmHg 69%
    01:00 +19°C° 0 mm 3 mps 741 mmHg 69%
    02:00 +19°C° 0 mm 3 mps 741 mmHg 69%
    03:00 +19°C° 0 mm 3 mps 741 mmHg 69%
    04:00 +19°C° 0 mm 3 mps 741 mmHg 69%
    05:00 +19°C° 0 mm 3 mps 741 mmHg 69%
    06:00 +20°C° 0 mm 3 mps 742 mmHg 68%
    07:00 +21°C° 0 mm 3 mps 742 mmHg 68%
    08:00 +22°C° 0 mm 3 mps 742 mmHg 67%
    09:00 +25°C° 0 mm 3 mps 742 mmHg 63%
    10:00 +26°C° 0 mm 3 mps 743 mmHg 59%
    11:00 +28°C° 0 mm 3 mps 743 mmHg 55%
    12:00 +29°C° 0 mm 3 mps 743 mmHg 54%
    13:00 +29°C° 0 mm 3 mps 743 mmHg 54%
    14:00 +30°C° 0 mm 3 mps 743 mmHg 53%
    15:00 +30°C° 0 mm 3 mps 743 mmHg 55%
    16:00 +30°C° 0 mm 3 mps 743 mmHg 58%
    17:00 +30°C° 0 mm 2 mps 743 mmHg 60%
    18:00 +28°C° 0 mm 2 mps 743 mmHg 65%
    19:00 +26°C° 0 mm 2 mps 743 mmHg 69%
    20:00 +24°C° 0 mm 2 mps 743 mmHg 74%
    21:00 +23°C° 0.1 mm 2 mps 743 mmHg 76%
    22:00 +22°C° 0.1 mm 1 mps 744 mmHg 78%
    23:00 +21°C° 0.1 mm 1 mps 744 mmHg 81%

    Day after tomorrow, 20 August, Tuesday

    Time Temperature Precipitation Wind Pressure Humidity
    00:00 +21°C° 0.2 mm 1 mps 744 mmHg 85%
    01:00 +20°C° 0.2 mm 1 mps 744 mmHg 89%
    02:00 +20°C° 0.2 mm 1 mps 744 mmHg 93%
    03:00 +19°C° 0 mm 1 mps 745 mmHg 94%
    04:00 +19°C° 0 mm 1 mps 745 mmHg 95%
    05:00 +19°C° 0 mm 1 mps 745 mmHg 95%
    06:00 +20°C° 0 mm 1 mps 745 mmHg 92%
    07:00 +21°C° 0 mm 1 mps 745 mmHg 88%
    08:00 +22°C° 0 mm 1 mps 746 mmHg 85%
    09:00 +23°C° 0 mm 1 mps 746 mmHg 79%
    10:00 +25°C° 0 mm 1 mps 746 mmHg 73%
    11:00 +26°C° 0 mm 1 mps 746 mmHg 67%
    12:00 +27°C° 0 mm 2 mps 746 mmHg 64%
    13:00 +28°C° 0 mm 2 mps 745 mmHg 61%
    14:00 +29°C° 0 mm 2 mps 745 mmHg 58%
    15:00 +29°C° 0.1 mm 2 mps 745 mmHg 60%
    16:00 +28°C° 0.1 mm 2 mps 745 mmHg 63%
    17:00 +28°C° 0.1 mm 2 mps 745 mmHg 65%
    18:00 +27°C° 0.7 mm 2 mps 745 mmHg 71%
    19:00 +25°C° 0.7 mm 2 mps 745 mmHg 78%
    20:00 +24°C° 0.7 mm 2 mps 745 mmHg 84%
    21:00 +23°C° 0.1 mm 2 mps 745 mmHg 86%
    22:00 +23°C° 0.1 mm 2 mps 745 mmHg 88%
    23:00 +21°C° 0.1 mm 2 mps 745 mmHg 89%

    21 August, Wednesday

    Time Temperature Precipitation Wind Pressure Humidity
    00:00 +21°C° 0.1 mm 2 mps 745 mmHg 90%
    01:00 +20°C° 0.1 mm 2 mps 744 mmHg 91%
    02:00 +20°C° 0.1 mm 2 mps 744 mmHg 93%
    03:00 +20°C° 0 mm 2 mps 744 mmHg 92%
    04:00 +20°C° 0 mm 1 mps 743 mmHg 91%
    05:00 +20°C° 0 mm 1 mps 743 mmHg 90%
    06:00 +21°C° 0 mm 1 mps 743 mmHg 86%
    07:00 +22°C° 0 mm 1 mps 744 mmHg 83%
    08:00 +24°C° 0 mm 1 mps 744 mmHg 80%
    09:00 +24°C° 0 mm 2 mps 744 mmHg 78%
    10:00 +25°C° 0 mm 4 mps 744 mmHg 77%
    11:00 +26°C° 0 mm 6 mps 745 mmHg 76%
    12:00 +26°C° 0 mm 6 mps 745 mmHg 75%
    13:00 +24°C° 0 mm 6 mps 745 mmHg 74%
    14:00 +24°C° 0 mm 7 mps 745 mmHg 74%
    15:00 +23°C° 0 mm 6 mps 746 mmHg 75%
    16:00 +22°C° 0 mm 6 mps 746 mmHg 77%
    17:00 +21°C° 0 mm 6 mps 747 mmHg 79%
    18:00 +19°C° 0 mm 5 mps 747 mmHg 80%
    19:00 +18°C° 0 mm 4 mps 748 mmHg 81%
    20:00 +17°C° 0 mm 3 mps 748 mmHg 82%
    21:00 +17°C° 0 mm 3 mps 748 mmHg 83%
    22:00 +16°C° 0 mm 3 mps 748 mmHg 85%
    23:00 +14°C° 0 mm 3 mps 749 mmHg 87%

    22 August, Thursday

    Time Temperature Precipitation Wind Pressure Humidity
    00:00 +14°C° 0 mm 3 mps 749 mmHg 86%
    01:00 +15°C° 0 mm 2 mps 749 mmHg 85%
    02:00 +15°C° 0 mm 2 mps 749 mmHg 84%
    03:00 +15°C° 0 mm 2 mps 748 mmHg 87%
    04:00 +14°C° 0 mm 2 mps 748 mmHg 91%
    05:00 +13°C° 0 mm 2 mps 748 mmHg 95%
    06:00 +14°C° 0 mm 2 mps 748 mmHg 91%
    07:00 +14°C° 0 mm 3 mps 749 mmHg 87%
    08:00 +16°C° 0 mm 3 mps 749 mmHg 84%
    09:00 +17°C° 0 mm 3 mps 749 mmHg 79%
    10:00 +18°C° 0 mm 4 mps 749 mmHg 75%
    11:00 +19°C° 0 mm 4 mps 749 mmHg 71%
    12:00 +20°C° 0 mm 4 mps 749 mmHg 69%
    13:00 +21°C° 0 mm 4 mps 748 mmHg 67%
    14:00 +22°C° 0 mm 4 mps 748 mmHg 65%
    15:00 +21°C° 0 mm 4 mps 748 mmHg 67%
    16:00 +21°C° 0 mm 4 mps 748 mmHg 69%
    17:00 +21°C° 0 mm 4 mps 748 mmHg 71%
    18:00 +20°C° 0 mm 3 mps 748 mmHg 74%
    19:00 +19°C° 0 mm 3 mps 748 mmHg 76%
    20:00 +18°C° 0 mm 3 mps 748 mmHg 79%
    21:00 +17°C° 0 mm 3 mps 748 mmHg 80%
    22:00 +17°C° 0 mm 3 mps 749 mmHg 81%
    23:00 +16°C° 0 mm 3 mps 749 mmHg 82%

    23 August, Friday

    Time Temperature Precipitation Wind Pressure Humidity
    00:00 +15°C° 0 mm 2 mps 749 mmHg 85%
    01:00 +15°C° 0 mm 2 mps 749 mmHg 87%
    02:00 +14°C° 0 mm 2 mps 749 mmHg 90%
    03:00 +14°C° 0 mm 2 mps 749 mmHg 92%
    04:00 +14°C° 0 mm 2 mps 749 mmHg 93%
    05:00 +14°C° 0 mm 2 mps 749 mmHg 94%
    06:00 +15°C° 0 mm 2 mps 749 mmHg 91%
    07:00 +16°C° 0 mm 3 mps 749 mmHg 88%
    08:00 +17°C° 0 mm 3 mps 749 mmHg 85%
    09:00 +19°C° 0 mm 3 mps 749 mmHg 78%
    10:00 +21°C° 0 mm 3 mps 749 mmHg 72%
    11:00 +22°C° 0 mm 4 mps 749 mmHg 66%
    12:00 +23°C° 0 mm 4 mps 749 mmHg 65%
    13:00 +23°C° 0 mm 4 mps 749 mmHg 63%
    14:00 +25°C° 0 mm 4 mps 749 mmHg 61%
    15:00 +23°C° 0 mm 4 mps 749 mmHg 63%
    16:00 +23°C° 0 mm 4 mps 748 mmHg 65%
    17:00 +24°C° 0 mm 3 mps 748 mmHg 67%
    18:00 +22°C° 0 mm 3 mps 748 mmHg 70%
    19:00 +20°C° 0 mm 3 mps 748 mmHg 73%
    20:00 +19°C° 0 mm 3 mps 748 mmHg 77%
    21:00 +18°C° 0 mm 3 mps 749 mmHg 77%
    22:00 +17°C° 0 mm 3 mps 749 mmHg 77%
    23:00 +16°C° 0 mm 3 mps 749 mmHg 77%
    Show more